Home > Weather > Hanoi > Past weeks

Flag for Vietnam Weather for the Past 2 Weeks in Hanoi, Vietnam

Now
70 °F

Clear.


Feels Like: 70 °F
Forecast: 66 / 89 °F
Wind: 9 mph from Northeast

Location: Ha Noi Airport

Current Time: Feb 12, 2016 at 10:15:07 PM

Latest Report: Feb 12, 2016 at 9:30 PM


Visibility: 4 mi

Pressure: 29.77 "Hg

Humidity: 88%

Dew point: 66 °F

Location of HanoiLocation

Historic Weather in Hanoi — Graph

°F

Hanoi Temperature Yesterday

Maximum temperature yesterday: 77 °F (at 3:00 PM)
Minimum temperature yesterday: 64 °F (at 12:00 AM)
Average temperature yesterday: 68 °F

High & Low Weather Summary for the Past Weeks

 TemperatureHumidityPressure
High82 °F (Feb 12, 2:30 PM)100% (Jan 29, 6:30 AM)30.45 "Hg (Jan 29, 6:30 AM)
Low48 °F (Feb 7, 4:00 AM)27% (Feb 8, 3:30 PM)29.68 "Hg (Feb 12, 3:00 PM)
Average60 °F77%30.12 "Hg
* Reported Jan 28 9:00 PM — Feb 12 9:00 PM, Hanoi, Weather by CustomWeather, © 2016

Note: Actual official high and low records may vary slightly from our data, if they occured in-between our weather recording intervals... More about our weather records

Advertising

Hanoi Weather History for the Previous 24 Hours

 ConditionsComfort  
Time TempWeatherWind HumidityBarometerVisibility
9:00 PM
Fri, Feb 12
72 °FFog.8 mph88%29.74 "Hg3 mi
8:30 PM72 °FClear.8 mph78%29.74 "Hg4 mi
8:00 PM72 °FFog.8 mph88%29.71 "Hg3 mi
7:30 PM73 °FFog.7 mph83%29.71 "Hg3 mi
7:00 PM75 °FFog.9 mph78%29.71 "Hg3 mi
6:30 PM77 °FFog.9 mph74%29.68 "Hg3 mi
6:00 PM77 °FFog.8 mph69%29.68 "Hg2 mi
5:30 PM81 °FHaze.6 mph66%29.68 "Hg2 mi
5:00 PM81 °FHaze.7 mph62%29.68 "Hg3 mi
4:30 PM82 °FHaze.10 mph58%29.68 "Hg3 mi
4:00 PM82 °FHaze.9 mph58%29.68 "Hg3 mi
3:30 PM82 °FHaze.7 mph58%29.68 "Hg3 mi
3:00 PM82 °FHaze.6 mph58%29.68 "Hg3 mi
2:30 PM82 °FClear.7 mph55%29.71 "Hg3 mi
2:00 PM81 °FClear.7 mph62%29.71 "Hg4 mi
1:30 PM81 °FHaze.6 mph62%29.74 "Hg3 mi
1:00 PM79 °FHaze.5 mph65%29.77 "Hg3 mi
12:30 PM77 °FHaze.3 mph65%29.77 "Hg3 mi
11:30 AM75 °FFog.6 mph74%29.83 "Hg3 mi
11:00 AM73 °FFog.6 mph74%29.86 "Hg3 mi
10:30 AM72 °FFog.7 mph78%29.86 "Hg3 mi
10:00 AM70 °FFog.5 mph83%29.89 "Hg3 mi
9:30 AM70 °FScattered clouds.6 mph83%29.89 "Hg4 mi
9:00 AM70 °FFog.5 mph83%29.89 "Hg3 mi
8:30 AM70 °FFog.3 mph83%29.89 "Hg3 mi
8:00 AM68 °FFog.3 mph94%29.89 "Hg3 mi
7:30 AM68 °FFog.2 mph94%29.86 "Hg3 mi
7:00 AM66 °FFog.1 mph100%29.86 "Hg3 mi
6:30 AM66 °FPartly sunny.2 mph100%29.86 "Hg4 mi
6:00 AM66 °FPassing clouds.1 mph100%29.83 "Hg4 mi
5:00 AM66 °FPassing clouds.3 mph100%29.83 "Hg4 mi
4:30 AM66 °FPassing clouds.3 mph94%29.83 "Hg4 mi
4:00 AM66 °FPassing clouds.3 mph94%29.83 "Hg4 mi
3:30 AM66 °FPassing clouds.5 mph94%29.80 "Hg4 mi
3:00 AM68 °FPassing clouds.7 mph94%29.80 "Hg4 mi
2:30 AM66 °FPassing clouds.5 mph94%29.80 "Hg4 mi
2:00 AM66 °FPassing clouds.6 mph94%29.80 "Hg4 mi
1:30 AM66 °FPassing clouds.6 mph94%29.83 "Hg4 mi
1:00 AM66 °FPartly cloudy.8 mph94%29.83 "Hg4 mi
12:30 AM66 °FPartly cloudy.7 mph94%29.83 "Hg4 mi
12:00 AM66 °FPartly cloudy.7 mph94%29.83 "Hg4 mi
11:30 PM
Thu, Feb 11
66 °FPartly cloudy.8 mph94%29.86 "Hg5 mi
11:00 PM66 °FPartly cloudy.7 mph94%29.86 "Hg5 mi
10:30 PM66 °FPartly cloudy.8 mph94%29.86 "Hg5 mi
10:00 PM66 °FPartly cloudy.10 mph94%29.86 "Hg4 mi
Weather by CustomWeather, © 2016

See weather overviewHow to use our weather pages